Regional Weather Roundup
Issued by NWS Kansas City/Pleasant Hill, MO

Home | Current Version | Previous Version | Graphics & Text | Print | Product List | Glossary Off
Versions: 1 2 3 4 5 6 7 8 9 10 11 12 13 14 15 16 17 18 19 20 21 22 23 24 25 26 27 28 29 30 31 32 33 34 35 36 37 38 39 40 41 42 43 44 45 46 47 48 49 50

000
ASUS43 KEAX 291410
RWREAX

WEATHER ROUNDUP FOR EASTERN KANSAS AND NORTHWEST MISSOURI
NATIONAL WEATHER SERVICE KANSAS CITY/PLEASANT HILL MO
900 AM CDT FRI JUL 29 2016

KSZ040-057-103>105-MOZ028-029-037-043-291500-
...KANSAS CITY METROPOLITAN AREA...

CITY           SKY/WX    TMP DP  RH WIND       PRES   REMARKS
K.C. INTL      PTSUNNY   73  63  70 E6        30.03R
K.C. DOWNTOWN  CLOUDY    75  64  68 NE6       30.01R
LEES SUMMIT    CLOUDY    73  65  75 NE7       30.02R
OLATHE - IXD   CLOUDY    72  68  87 N6        30.02S
OLATHE - OJC   CLOUDY    72  66  81 NE6       30.02R
LAWRENCE       PTSUNNY   72  66  81 N8        30.02R

$$

MOZ001>008-011>017-020>025-030>033-038>040-044>046-053-054-291500-
...NORTHERN AND CENTRAL MISSOURI...

CITY           SKY/WX    TMP DP  RH WIND       PRES   REMARKS
ST. JOSEPH     MOSUNNY   73  66  78 N8        30.03S
MOSBY          PTSUNNY   72  63  73 CALM      30.02R
WHITEMAN AFB   PTSUNNY   74  70  87 NE6       30.00R
CLINTON        CLOUDY    73  73 100 CALM      30.01R
SEDALIA        PTSUNNY   75  69  81 NE6       30.02R
WARSAW         NOT AVBL
CHILLICOTHE      N/A     72  65  78 VRB3      30.02F
KIRKSVILLE     PTSUNNY   70  64  81 N7        30.01S

$$

MOZ041-047>049-056>058-063>065-088>090-097-291500-
...EASTERN AND SOUTHERN MISSOURI...

CITY           SKY/WX    TMP DP  RH WIND       PRES   REMARKS
ST. LOUIS INTL PTSUNNY   79  67  66 NW6       29.97R
SPIRIT OF STL  CLOUDY    76  70  82 NW5       29.96R
COLUMBIA       PTSUNNY   72  69  90 CALM      29.99F
JEFFERSON CITY MOSUNNY   74  69  85 CALM      29.98S
ROLLA          MOSUNNY   73  68  84 SE5       29.98F
OSAGE BEACH    CLOUDY    73  70  90 E3        30.00S
SPRINGFIELD    MOSUNNY   78  72  81 SE3       29.99S
BRANSON        MOSUNNY   79  73  83 CALM      30.02R
JOPLIN         PTSUNNY   75  68  78 VRB5      30.00S
WEST PLAINS    SUNNY     79  70  74 CALM      30.02S

$$

IAZ060-094-KSZ022-034>040-054-083-096-NEZ052-066-093-291500-
...KANSAS...SOUTHEAST NEBRASKA AND IOWA...

CITY           SKY/WX    TMP DP  RH WIND       PRES   REMARKS
TOPEKA         CLOUDY    73  68  84 NE7       30.03R
MANHATTAN      MOSUNNY   73  68  83 CALM      30.03F
EMPORIA        CLOUDY    69  68  96 W5        30.05R
CHANUTE        CLOUDY    71  68  90 NW7       30.02R
WICHITA        CLOUDY    70  67  90 N6        30.06F
OMAHA          CLOUDY    69  60  73 SE3       30.09R
LINCOLN        LGT RAIN  69  66  90 E3        30.09S FOG
FALLS CITY     CLOUDY    71  66  84 NE6       30.04R
LAMONI         CLOUDY    65  64  97 NW9       30.03F
DES MOINES     CLOUDY    68  61  78 N7        30.02R

$$




USA.gov is the U.S. government's official web portal to all federal, state and local government web resources and services.